Temp
67 67 67 68 68 67 66 68 69 68 70 70 69 69 68 66 67 69 69 68 67 69 67 67 66 66 65 66 67 66 64 64 64 62 62 63 61 64 66 66 66 67 71 71 72 67 66 59 58 64 67 66 67 69 71 72 71 70 70 71 74 74 73
67 68 69 68 65 66 65 67 67 67 69 70 71 70 69 65 66 67 70 69 69 69 69 69 68 68 67 67 67 66 65 65 65 66 65 65 64 64 64 65 67 68 70 70 70 71 68 64 61 60 61 64 66 67 69 71 72 71 71 72 74 75 73
66 66 66 65 66 66 66 68 68 67 67 67 69 71 69 66 66 67 69 69 69 70 68 69 67 67 67 67 68 67 66 65 66 67 67 67 67 67 67 66 66 66 67 67 68 68 68 69 64 63 63 61 61 66 68 68 70 70 72 72 72 76 74
66 66 64 64 65 65 66 67 67 67 67 67 69 70 69 68 67 67 68 69 69 69 68 68 65 65 66 67 68 67 66 65 64 65 65 66 66 66 67 67 68 69 67 66 67 68 68 66 67 66 66 67 67 64 66 69 69 70 72 72 73 74 73
67 66 65 64 65 65 66 66 67 67 67 67 68 67 65 66 67 65 67 67 67 68 68 69 68 67 67 68 68 67 66 64 65 65 65 64 65 64 66 69 70 71 71 70 70 71 70 70 69 67 66 68 69 69 69 66 69 69 71 73 75 75 74
66 66 66 64 66 65 65 66 65 66 67 65 66 66 65 67 68 67 66 66 66 67 68 67 67 66 64 66 68 69 68 66 66 66 65 65 66 65 67 69 71 71 71 73 72 72 72 72 71 68 70 71 67 68 69 67 66 69 71 73 75 75 75
66 65 64 64 66 65 66 66 67 67 68 68 67 67 68 68 68 67 67 67 70 69 68 66 66 65 66 66 68 68 68 68 68 67 66 67 66 66 68 69 69 71 71 72 71 71 70 70 70 69 67 68 69 68 68 67 70 68 70 73 75 76 75
64 64 64 64 64 65 66 67 68 68 69 70 69 69 70 68 68 68 67 67 68 68 67 65 65 66 67 67 68 68 69 68 68 67 67 66 65 65 66 68 69 70 71 71 70 72 74 73 72 71 68 63 63 65 65 68 69 69 71 73 75 74 74
65 64 64 64 65 66 67 68 67 68 69 71 70 69 68 68 67 69 69 69 68 67 67 66 66 67 68 67 68 68 68 69 67 67 67 67 66 66 65 65 66 67 70 69 70 71 74 75 74 72 71 69 64 61 65 65 67 69 74 72 73 74 74
66 65 64 64 64 65 64 65 66 68 69 70 69 68 67 66 67 68 68 67 67 66 67 67 67 68 68 67 67 67 67 67 66 67 67 67 67 66 66 67 67 67 68 69 67 68 68 73 74 74 74 72 71 68 64 64 65 67 70 73 71 72 74
67 67 66 66 65 64 64 64 65 66 68 69 69 68 67 66 66 67 67 66 67 67 67 67 66 65 65 64 65 67 67 67 66 66 67 67 67 67 66 66 67 67 70 69 67 70 69 71 73 74 74 75 75 71 69 66 66 70 71 72 74 73 73
67 67 66 65 65 64 64 64 65 67 68 68 68 67 66 67 66 66 66 67 67 67 67 66 65 64 64 63 64 66 67 66 65 64 66 67 68 67 66 65 66 68 70 69 70 70 70 70 72 74 74 75 74 73 71 71 67 70 74 69 72 77 74
66 66 66 65 64 65 65 66 66 66 66 67 68 68 67 67 67 67 67 67 68 68 67 66 66 66 65 65 65 66 67 67 66 66 66 67 69 68 67 66 67 67 68 70 68 67 66 70 73 74 74 73 73 73 73 72 70 68 71 73 73 74 74
64 66 66 66 65 65 66 66 66 67 67 66 67 67 67 68 68 68 68 68 69 68 67 67 68 67 65 65 66 66 67 67 66 66 67 66 68 68 68 68 68 68 68 66 66 69 72 73 72 72 74 73 72 72 72 71 70 69 68 70 72 72 73
65 65 65 66 65 65 66 66 66 66 65 67 67 68 68 68 68 68 69 70 70 69 67 67 66 66 66 65 65 66 68 67 66 67 66 66 67 67 67 68 69 67 65 66 68 71 73 72 73 73 73 73 73 72 72 73 72 71 68 67 69 73 70
62 63 64 64 65 64 65 65 66 65 65 66 68 68 68 68 68 69 70 70 71 70 68 66 65 65 65 65 66 66 67 67 66 66 65 66 67 67 65 66 67 65 66 66 68 70 71 72 74 75 74 73 67 71 74 75 73 70 70 68 69 70 70
59 62 62 62 63 64 65 65 64 64 65 67 67 68 69 70 69 69 69 70 70 69 69 67 65 66 67 67 66 66 67 67 67 67 66 67 68 67 66 65 67 67 67 68 70 70 71 72 72 74 74 73 70 71 72 72 73 73 72 70 68 73 72
57 57 60 63 63 64 64 63 62 63 65 66 67 68 69 71 70 69 68 69 69 68 67 66 65 65 66 66 66 66 67 67 67 68 67 67 67 67 66 66 67 68 67 67 69 70 71 70 73 73 73 74 73 72 69 71 73 74 71 70 69 71 71
55 56 58 61 62 62 61 61 62 63 66 67 68 68 68 70 71 71 71 71 71 70 69 67 67 66 66 66 66 66 67 67 68 68 67 67 67 67 68 68 67 68 67 68 69 69 70 70 72 71 73 74 75 73 68 70 71 72 72 72 71 67 68
55 56 57 59 61 61 61 62 63 64 67 68 68 67 67 68 69 71 73 73 73 72 71 69 68 67 66 66 66 66 66 66 66 67 67 66 67 67 67 67 68 68 67 68 69 69 69 69 69 70 71 71 74 73 68 68 72 71 70 71 71 71 69
55 55 56 59 60 61 61 62 62 65 66 67 67 68 68 68 70 71 72 72 72 73 72 70 69 68 67 66 66 66 66 64 64 64 64 65 66 66 65 64 66 68 69 70 70 70 69 66 70 70 71 72 72 71 69 69 67 69 69 69 69 69 70
55 55 56 56 58 60 61 61 62 64 65 67 67 69 69 69 69 69 71 72 73 72 71 70 71 69 68 67 67 66 65 65 64 64 63 64 64 65 64 64 66 68 68 65 61 61 62 63 70 70 70 71 70 70 70 67 60 58 65 67 68 69 68
54 55 55 54 55 58 60 61 62 64 65 66 67 68 68 69 69 69 69 70 71 70 69 69 63 56 59 69 69 69 67 66 65 65 64 63 64 66 66 66 66 63 60 58 55 52 52 54 57 66 71 71 70 70 69 62 61 63 64 65 68 68 66
54 53 53 53 54 56 58 60 62 62 64 65 63 65 66 68 68 69 69 69 67 67 67 65 50 48 49 54 68 69 68 67 67 66 65 64 63 65 66 68 68 63 61 58 59 48 50 48 49 51 53 57 62 68 65 60 62 66 67 67 69 68 68
53 52 52 52 52 53 55 57 58 60 62 62 63 64 64 66 66 66 67 68 66 65 63 49 43 45 46 47 54 69 70 69 68 67 67 66 66 66 66 67 67 67 67 67 67 61 54 46 47 47 45 45 45 46 46 61 65 64 63 67 68 68 69
52 51 52 51 52 51 50 50 50 52 54 56 59 60 60 60 61 63 64 65 64 63 61 42 42 42 44 43 44 57 71 70 69 68 68 69 69 68 67 66 65 65 66 57 62 65 63 57 45 42 44 45 43 42 42 40 42 60 67 64 67 67 69
51 51 51 51 51 50 49 48 48 48 48 50 51 53 54 55 56 57 59 61 60 60 60 45 40 41 42 42 41 50 70 69 69 70 70 71 71 70 69 68 67 64 64 63 64 63 64 62 61 61 61 62 60 54 47 45 46 47 57 64 63 66 65
50 51 51 51 50 49 48 48 47 47 46 46 47 48 49 50 51 53 55 56 58 56 52 40 40 41 41 40 40 48 68 67 68 69 69 69 68 67 67 67 67 66 65 64 64 62 63 63 62 60 60 59 59 57 55 55 54 58 60 61 64 63 61
50 51 50 50 49 48 48 47 46 46 46 46 47 48 48 50 49 49 50 52 54 54 51 40 39 40 40 40 42 62 66 65 65 65 64 64 65 66 66 66 66 65 64 64 53 48 55 62 60 58 56 56 55 53 50 46 44 46 52 55 56 57 56
49 50 50 49 49 48 47 47 46 46 45 45 45 45 46 47 48 48 48 48 48 50 50 43 39 42 41 43 52 65 64 64 63 61 61 60 62 62 63 65 66 65 63 62 48 44 47 53 61 59 57 55 55 55 53 50 43 41 41 41 40 40 40
50 50 50 49 48 49 49 49 48 47 45 44 44 44 45 45 46 45 45 46 46 46 48 44 39 42 43 46 54 61 62 62 60 60 58 59 60 60 56 49 58 65 62 59 43 44 46 57 62 59 57 55 54 53 52 52 50 46 42 42 42 42 42
50 50 50 50 50 49 49 49 49 49 47 46 45 46 46 44 44 44 44 44 45 44 45 45 40 40 42 44 54 59 59 59 58 59 58 56 57 57 56 51 44 51 58 51 40 43 44 56 61 60 59 57 54 53 53 53 51 50 51 51 50 49 47
51 50 50 50 50 50 51 50 49 49 49 48 46 46 46 45 44 43 44 44 44 43 42 43 42 39 40 41 44 56 58 57 56 57 58 58 56 56 55 55 49 39 40 40 40 41 44 49 62 61 61 59 56 52 55 55 54 52 51 50 49 49 48
50 50 50 50 50 51 51 50 50 50 49 49 49 47 46 45 45 44 44 44 44 43 43 42 41 39 40 41 41 46 54 53 54 55 55 55 56 55 53 52 51 40 38 39 39 39 40 41 47 62 62 60 58 54 52 54 51 48 53 52 52 53 54
50 49 50 50 49 49 50 51 50 50 50 49 48 46 46 45 45 44 44 44 44 43 44 43 42 40 39 40 40 41 47 49 49 49 48 48 50 49 48 46 45 41 38 39 39 39 40 41 43 54 49 42 41 43 55 55 56 57 56 56 56 55 55
50 50 50 50 50 49 49 49 48 49 49 49 47 45 45 44 44 43 43 44 43 43 43 43 40 40 39 39 39 40 40 43 42 48 46 45 46 47 48 46 44 39 39 39 39 39 40 40 42 43 39 40 40 41 46 54 54 55 55 54 54 53 52
51 51 51 51 51 51 49 49 48 47 47 47 46 45 44 44 43 42 42 42 42 42 43 43 41 39 40 38 38 39 39 39 41 44 45 44 44 44 44 43 41 38 38 38 38 38 38 40 41 38 39 39 41 44 52 52 52 52 50 50 50 50 50
MSLP
1017.46 1017.58 1017.66 1017.50 1017.22 1016.94 1017.06 1017.26 1017.22 1017.10 1016.94 1016.98 1017.30 1017.62 1018.02 1018.58 1018.58 1018.62 1018.66 1018.78 1018.94 1019.02 1019.26 1019.50 1019.78 1019.70 1019.74 1019.94 1020.06 1020.14 1020.38 1020.58 1020.66 1020.90 1021.30 1021.34 1021.66 1021.78 1021.74 1021.94 1021.98 1021.90 1021.58 1021.70 1021.70 1022.26 1022.66 1023.86 1024.22 1023.78 1023.58 1023.66 1023.66 1023.58 1023.46 1023.42 1023.54 1023.70 1023.94 1023.90 1023.78 1023.82 1023.86
1017.42 1017.30 1017.14 1017.14 1016.98 1016.74 1016.78 1016.66 1016.62 1016.62 1016.54 1016.50 1016.70 1017.22 1017.82 1018.58 1018.66 1018.62 1018.54 1018.74 1018.86 1018.94 1019.18 1019.22 1019.22 1019.34 1019.50 1019.78 1019.94 1020.14 1020.38 1020.54 1020.58 1020.54 1020.86 1021.14 1021.34 1021.42 1021.74 1021.90 1021.90 1021.82 1021.70 1021.78 1021.82 1021.74 1022.14 1023.02 1023.70 1023.98 1024.02 1023.82 1023.70 1023.62 1023.46 1023.34 1023.34 1023.54 1023.66 1023.70 1023.62 1023.66 1023.86
1017.14 1017.10 1016.82 1016.70 1016.78 1016.74 1016.70 1016.50 1016.46 1016.66 1016.62 1016.42 1016.54 1017.06 1017.62 1018.14 1018.50 1018.74 1018.58 1018.58 1018.74 1018.86 1019.10 1019.10 1019.26 1019.42 1019.54 1019.70 1019.66 1019.82 1020.10 1020.42 1020.42 1020.50 1020.62 1020.82 1021.02 1021.02 1021.22 1021.58 1021.90 1021.94 1022.06 1022.18 1022.06 1022.10 1022.06 1021.98 1022.90 1023.34 1023.38 1023.94 1023.94 1023.58 1023.42 1023.50 1023.46 1023.54 1023.58 1023.62 1023.74 1023.66 1023.78
1016.78 1017.02 1017.14 1016.94 1016.90 1017.02 1016.90 1016.70 1016.58 1016.62 1016.70 1016.66 1016.74 1016.94 1017.10 1017.26 1017.86 1018.14 1018.22 1018.38 1018.58 1018.82 1019.06 1019.14 1019.46 1019.62 1019.62 1019.58 1019.66 1019.78 1019.94 1020.22 1020.58 1020.66 1020.86 1020.82 1020.86 1020.98 1021.10 1021.22 1021.30 1021.30 1021.46 1021.78 1021.70 1021.74 1021.86 1022.34 1022.34 1022.66 1022.90 1023.14 1023.02 1023.62 1023.46 1023.34 1023.50 1023.46 1023.46 1023.50 1023.58 1023.70 1023.86
1016.46 1016.70 1016.86 1017.02 1017.06 1017.10 1016.94 1016.74 1016.50 1016.46 1016.50 1016.54 1016.70 1016.90 1016.78 1016.86 1017.34 1017.54 1017.82 1018.10 1018.38 1018.62 1018.78 1018.90 1019.10 1019.38 1019.46 1019.42 1019.42 1019.62 1019.82 1020.26 1020.06 1020.30 1020.58 1020.70 1020.74 1021.02 1021.02 1020.94 1020.86 1020.78 1020.82 1021.06 1021.10 1021.18 1021.38 1021.54 1021.78 1022.26 1022.58 1022.62 1022.70 1022.86 1023.14 1023.58 1023.58 1023.58 1023.50 1023.42 1023.38 1023.58 1023.82
1016.30 1016.42 1016.66 1017.22 1016.98 1017.02 1016.78 1016.54 1016.38 1016.34 1016.30 1016.54 1016.66 1016.70 1016.66 1016.70 1016.86 1017.22 1017.54 1017.90 1018.10 1018.22 1018.34 1018.58 1018.86 1019.10 1019.50 1019.50 1019.30 1019.38 1019.58 1019.94 1019.94 1020.02 1020.30 1020.34 1020.46 1020.74 1020.78 1020.74 1020.66 1020.66 1020.70 1020.54 1020.74 1020.90 1020.90 1021.06 1021.34 1022.02 1021.94 1022.06 1022.62 1022.90 1023.18 1023.46 1023.78 1023.58 1023.38 1023.42 1023.42 1023.46 1023.70
1016.38 1016.46 1016.38 1015.94 1015.98 1016.22 1016.26 1016.26 1016.26 1016.34 1016.26 1016.22 1016.38 1016.50 1016.34 1016.38 1016.50 1016.70 1017.14 1017.50 1017.66 1017.86 1018.02 1018.30 1018.66 1018.82 1019.14 1019.46 1019.30 1019.26 1019.34 1019.46 1019.58 1019.78 1019.94 1020.02 1020.18 1020.34 1020.46 1020.62 1020.62 1020.50 1020.46 1020.50 1020.86 1020.86 1021.06 1021.22 1021.42 1021.54 1022.06 1022.26 1022.18 1022.74 1023.06 1023.30 1023.18 1023.62 1023.58 1023.26 1023.22 1023.34 1023.62
1016.30 1016.30 1016.26 1016.42 1016.50 1016.46 1016.18 1016.18 1016.22 1016.34 1016.34 1016.06 1016.14 1016.18 1016.14 1016.26 1016.30 1016.42 1016.82 1017.18 1017.50 1017.70 1018.02 1018.42 1018.50 1018.50 1018.78 1019.06 1019.10 1019.14 1019.14 1019.22 1019.30 1019.46 1019.62 1019.86 1020.22 1020.34 1020.38 1020.30 1020.14 1020.10 1020.14 1020.38 1020.74 1020.70 1020.46 1020.66 1020.86 1021.18 1021.66 1022.62 1022.90 1022.70 1023.06 1023.06 1023.26 1023.22 1022.94 1023.14 1023.10 1023.34 1023.50
1016.18 1016.18 1016.22 1016.26 1016.10 1015.82 1015.58 1015.58 1015.78 1016.02 1016.10 1016.02 1016.02 1016.10 1016.14 1016.18 1016.26 1016.34 1016.58 1016.90 1017.18 1017.54 1017.86 1018.26 1018.46 1018.50 1018.62 1018.74 1018.82 1018.90 1019.02 1018.98 1019.22 1019.38 1019.50 1019.66 1019.86 1020.10 1020.22 1020.10 1020.26 1020.30 1020.22 1020.42 1020.58 1020.46 1020.30 1020.22 1020.38 1020.74 1021.10 1021.54 1022.30 1023.14 1022.82 1023.18 1023.10 1023.02 1022.42 1022.94 1023.14 1023.10 1023.26
1016.10 1016.06 1015.98 1015.86 1015.66 1015.46 1015.38 1015.34 1015.42 1015.62 1015.74 1015.82 1015.94 1016.02 1016.02 1016.18 1016.30 1016.34 1016.54 1016.78 1017.06 1017.38 1017.66 1017.90 1018.10 1018.34 1018.50 1018.66 1018.78 1018.86 1018.94 1018.94 1019.10 1019.22 1019.30 1019.50 1019.54 1019.78 1019.86 1019.94 1019.98 1020.10 1020.10 1020.22 1020.62 1020.74 1020.78 1020.34 1020.18 1020.38 1020.46 1020.82 1021.06 1021.74 1022.70 1022.90 1022.90 1022.78 1022.62 1022.46 1022.82 1022.98 1023.02
1015.78 1015.66 1015.58 1015.54 1015.58 1015.66 1015.46 1015.46 1015.54 1015.62 1015.66 1015.70 1015.74 1015.82 1015.82 1016.02 1016.14 1016.18 1016.38 1016.58 1016.86 1017.14 1017.42 1017.70 1018.02 1018.34 1018.54 1018.70 1018.86 1018.74 1018.70 1018.78 1018.94 1018.98 1019.06 1019.22 1019.34 1019.42 1019.58 1019.70 1019.78 1019.86 1019.74 1019.98 1020.34 1020.38 1020.62 1020.30 1020.18 1020.18 1020.30 1020.18 1020.34 1020.98 1021.46 1022.06 1022.22 1021.94 1022.06 1022.26 1022.14 1022.46 1022.86
1015.74 1015.58 1015.38 1015.22 1015.30 1015.46 1015.46 1015.34 1015.38 1015.42 1015.50 1015.62 1015.66 1015.66 1015.66 1015.70 1015.86 1015.94 1016.02 1016.30 1016.62 1016.94 1017.22 1017.50 1017.66 1017.90 1018.06 1018.22 1018.38 1018.50 1018.42 1018.54 1018.74 1018.94 1018.94 1018.98 1019.02 1019.14 1019.38 1019.54 1019.54 1019.62 1019.54 1019.82 1019.98 1020.18 1020.26 1020.22 1020.02 1020.02 1020.10 1020.10 1020.26 1020.42 1020.82 1021.02 1021.78 1021.62 1021.30 1022.26 1022.10 1021.90 1022.38
1015.70 1015.54 1015.38 1015.30 1015.06 1015.02 1015.06 1015.06 1015.10 1015.22 1015.34 1015.42 1015.54 1015.46 1015.46 1015.42 1015.54 1015.66 1015.78 1016.10 1016.42 1016.66 1016.98 1017.14 1017.38 1017.54 1017.74 1017.94 1018.14 1018.18 1018.10 1018.22 1018.38 1018.54 1018.58 1018.62 1018.74 1018.86 1019.06 1019.22 1019.34 1019.54 1019.62 1019.70 1019.98 1020.22 1020.30 1020.06 1019.86 1019.86 1019.94 1020.10 1020.26 1020.38 1020.50 1020.78 1021.18 1021.66 1021.46 1021.46 1021.74 1022.02 1022.22
1015.66 1015.42 1015.34 1015.22 1015.18 1015.02 1014.86 1014.86 1014.90 1014.90 1015.02 1015.30 1015.42 1015.42 1015.34 1015.30 1015.34 1015.38 1015.58 1015.94 1016.22 1016.42 1016.58 1016.82 1016.90 1017.02 1017.30 1017.50 1017.66 1017.82 1017.82 1017.90 1018.10 1018.18 1018.26 1018.46 1018.54 1018.70 1018.78 1018.90 1019.06 1019.30 1019.54 1019.74 1019.78 1019.78 1019.66 1019.62 1019.74 1019.82 1019.78 1019.94 1020.22 1020.34 1020.54 1020.74 1021.14 1021.38 1021.78 1021.74 1021.70 1021.98 1022.18
1015.46 1015.34 1015.30 1015.18 1015.14 1014.94 1014.82 1014.70 1014.74 1014.90 1014.98 1015.10 1015.18 1015.26 1015.22 1015.06 1015.06 1015.14 1015.34 1015.70 1015.94 1016.06 1016.22 1016.26 1016.34 1016.58 1016.82 1017.10 1017.42 1017.50 1017.50 1017.66 1017.90 1017.94 1018.06 1018.26 1018.38 1018.46 1018.58 1018.78 1018.86 1019.38 1019.46 1019.46 1019.54 1019.38 1019.26 1019.38 1019.50 1019.66 1019.74 1019.82 1020.06 1020.26 1020.30 1020.58 1020.74 1020.94 1021.62 1022.02 1021.98 1021.90 1022.34
1015.62 1015.26 1015.18 1015.02 1014.98 1014.86 1014.66 1014.54 1014.54 1014.74 1014.90 1014.90 1014.90 1014.94 1014.94 1014.86 1014.78 1014.78 1015.02 1015.46 1015.70 1015.82 1015.94 1016.02 1015.98 1016.14 1016.46 1016.82 1017.10 1017.26 1017.30 1017.42 1017.58 1017.74 1017.90 1018.02 1018.10 1018.26 1018.58 1018.74 1018.86 1019.06 1019.18 1019.38 1019.26 1019.14 1019.06 1019.14 1019.14 1019.26 1019.42 1019.74 1020.66 1020.34 1020.18 1020.14 1020.50 1020.94 1021.14 1021.58 1021.66 1021.98 1022.18
1016.02 1015.42 1015.06 1014.94 1014.82 1014.58 1014.42 1014.46 1014.54 1014.66 1014.70 1014.66 1014.74 1014.70 1014.62 1014.62 1014.54 1014.58 1014.86 1015.30 1015.62 1015.78 1015.82 1015.94 1015.94 1015.94 1016.10 1016.42 1016.78 1017.02 1017.14 1017.22 1017.30 1017.46 1017.62 1017.74 1017.82 1018.02 1018.30 1018.54 1018.58 1018.66 1018.86 1018.90 1018.86 1018.90 1018.94 1018.98 1019.10 1019.06 1019.22 1019.42 1019.98 1020.10 1020.10 1020.22 1020.22 1020.42 1020.70 1021.22 1021.66 1021.42 1021.78
1016.50 1016.02 1015.30 1014.78 1014.58 1014.42 1014.42 1014.50 1014.62 1014.62 1014.50 1014.62 1014.58 1014.50 1014.42 1014.38 1014.42 1014.46 1014.74 1015.10 1015.38 1015.62 1015.82 1015.98 1016.10 1016.06 1016.10 1016.26 1016.58 1016.86 1017.02 1017.10 1017.18 1017.22 1017.34 1017.50 1017.62 1017.78 1018.02 1018.26 1018.34 1018.38 1018.62 1018.70 1018.70 1018.78 1018.78 1018.98 1018.90 1019.02 1019.14 1019.10 1019.38 1019.62 1020.26 1020.18 1020.14 1020.18 1020.62 1020.86 1021.26 1021.38 1021.50
1016.74 1016.22 1015.66 1014.98 1014.54 1014.42 1014.38 1014.42 1014.46 1014.46 1014.26 1014.34 1014.38 1014.34 1014.30 1014.26 1014.30 1014.34 1014.46 1014.66 1014.90 1015.18 1015.46 1015.70 1015.82 1015.90 1015.98 1016.14 1016.42 1016.66 1016.82 1016.90 1016.94 1017.06 1017.22 1017.38 1017.50 1017.58 1017.70 1017.98 1018.14 1018.30 1018.42 1018.46 1018.50 1018.54 1018.62 1018.82 1018.86 1018.94 1018.98 1018.94 1018.98 1019.34 1019.94 1020.06 1020.10 1020.14 1020.30 1020.42 1020.70 1021.50 1021.66
1016.90 1016.38 1015.82 1015.18 1014.54 1014.38 1014.38 1014.30 1014.18 1014.10 1014.06 1014.10 1014.14 1014.22 1014.30 1014.34 1014.30 1014.22 1014.10 1014.14 1014.38 1014.66 1014.94 1015.18 1015.42 1015.54 1015.70 1015.90 1016.14 1016.42 1016.70 1016.86 1016.98 1017.02 1017.10 1017.26 1017.38 1017.54 1017.70 1017.90 1017.94 1018.06 1018.22 1018.22 1018.30 1018.38 1018.58 1018.74 1018.78 1018.78 1018.74 1018.90 1018.86 1019.10 1019.74 1020.06 1019.90 1020.14 1020.34 1020.46 1020.62 1020.82 1021.30
1016.98 1016.54 1015.94 1015.26 1014.58 1014.34 1014.38 1014.38 1014.34 1014.26 1014.18 1014.10 1014.10 1014.14 1014.22 1014.26 1014.22 1014.26 1014.18 1014.18 1014.22 1014.34 1014.54 1014.78 1014.98 1015.18 1015.38 1015.58 1015.82 1016.14 1016.46 1016.74 1016.90 1017.02 1017.14 1017.22 1017.34 1017.50 1017.82 1017.90 1017.78 1017.70 1017.82 1017.94 1018.02 1018.14 1018.34 1018.74 1018.58 1018.70 1018.58 1018.66 1018.78 1019.02 1019.42 1019.62 1020.02 1020.18 1020.42 1020.54 1020.62 1020.90 1020.94
1017.06 1016.62 1016.18 1015.70 1015.10 1014.50 1014.18 1014.14 1014.18 1014.26 1014.22 1014.14 1014.06 1014.06 1014.10 1014.18 1014.26 1014.30 1014.22 1014.18 1014.22 1014.30 1014.42 1014.46 1014.54 1014.86 1015.14 1015.38 1015.50 1015.86 1016.22 1016.54 1016.74 1016.98 1017.14 1017.22 1017.34 1017.46 1017.70 1017.66 1017.58 1017.50 1017.58 1017.70 1017.90 1018.02 1018.14 1018.46 1018.54 1018.62 1018.50 1018.46 1018.62 1018.82 1019.14 1019.74 1020.70 1021.58 1020.98 1020.66 1020.62 1020.58 1020.90
1017.30 1016.86 1016.50 1016.14 1015.74 1015.14 1014.78 1014.58 1014.42 1014.30 1014.14 1014.06 1014.10 1014.14 1014.18 1014.22 1014.26 1014.30 1014.30 1014.22 1014.26 1014.38 1014.34 1014.22 1014.38 1014.62 1014.74 1014.90 1015.22 1015.50 1015.90 1016.22 1016.50 1016.70 1016.94 1017.06 1017.22 1017.26 1017.42 1017.50 1017.46 1017.50 1017.66 1017.82 1018.02 1018.22 1018.42 1018.58 1018.78 1018.50 1018.26 1018.30 1018.50 1018.70 1019.06 1019.94 1020.66 1020.78 1020.66 1020.82 1020.38 1020.46 1020.86
1017.58 1017.22 1016.90 1016.50 1015.98 1015.46 1014.98 1014.70 1014.54 1014.34 1014.14 1014.14 1014.26 1014.34 1014.34 1014.30 1014.30 1014.26 1014.18 1014.18 1014.38 1014.46 1014.38 1014.26 1014.50 1014.70 1014.86 1014.86 1014.82 1015.18 1015.58 1015.90 1016.14 1016.38 1016.62 1016.86 1017.06 1017.10 1017.10 1017.14 1017.14 1017.50 1017.78 1017.94 1018.02 1018.22 1018.38 1018.62 1018.70 1018.66 1018.62 1018.46 1018.42 1018.66 1019.18 1020.02 1020.46 1020.18 1019.98 1019.94 1019.82 1020.06 1020.22
1017.94 1017.58 1017.18 1016.86 1016.54 1016.26 1015.70 1015.18 1014.90 1014.58 1014.30 1014.30 1014.34 1014.34 1014.42 1014.42 1014.46 1014.46 1014.30 1014.22 1014.38 1014.54 1014.66 1014.90 1014.74 1014.78 1014.94 1014.98 1014.94 1014.94 1015.22 1015.54 1015.86 1016.02 1016.26 1016.50 1016.66 1016.82 1016.90 1016.94 1017.02 1017.10 1017.34 1017.46 1017.74 1018.22 1018.62 1018.82 1018.74 1018.90 1019.10 1019.10 1019.18 1019.34 1019.46 1019.38 1019.46 1019.70 1020.10 1019.74 1019.62 1019.66 1019.74
1018.46 1018.06 1017.70 1017.42 1017.10 1016.74 1016.46 1016.26 1016.18 1015.94 1015.54 1015.26 1014.90 1014.90 1014.94 1014.90 1014.86 1014.78 1014.58 1014.42 1014.54 1014.74 1014.98 1015.46 1015.06 1014.90 1014.90 1015.02 1015.14 1015.10 1014.94 1015.14 1015.46 1015.70 1015.86 1016.02 1016.14 1016.42 1016.58 1016.78 1017.02 1017.18 1017.34 1017.86 1017.78 1017.86 1018.18 1018.70 1019.02 1019.06 1019.18 1019.42 1019.66 1019.82 1019.86 1019.98 1020.18 1019.78 1019.58 1019.98 1019.58 1019.54 1019.46
1019.06 1018.70 1018.34 1018.02 1017.70 1017.46 1017.22 1017.22 1017.14 1016.98 1016.78 1016.46 1016.30 1016.18 1015.90 1015.70 1015.54 1015.46 1015.30 1014.94 1014.90 1015.10 1015.18 1015.62 1015.42 1014.98 1014.90 1015.02 1015.22 1015.30 1014.90 1015.06 1015.22 1015.30 1015.42 1015.50 1015.70 1015.94 1016.14 1016.42 1016.70 1017.02 1017.30 1017.58 1017.66 1017.82 1017.94 1018.22 1018.54 1018.74 1018.86 1018.98 1019.30 1019.74 1019.98 1020.18 1020.06 1020.06 1019.78 1019.78 1019.86 1019.54 1019.58
1019.62 1019.18 1018.86 1018.58 1018.38 1018.18 1018.06 1017.86 1017.62 1017.54 1017.50 1017.42 1017.26 1017.06 1016.94 1016.78 1016.58 1016.22 1015.94 1015.66 1015.22 1015.38 1015.86 1016.02 1015.50 1014.98 1014.82 1014.98 1015.14 1015.26 1014.90 1015.06 1015.14 1015.22 1015.42 1015.62 1015.78 1015.94 1016.10 1016.26 1016.38 1016.66 1017.02 1017.26 1017.42 1017.58 1017.78 1018.14 1018.42 1018.74 1019.02 1019.34 1019.58 1019.90 1020.22 1020.34 1020.34 1020.02 1020.02 1020.18 1020.06 1019.98 1020.14
1020.06 1019.66 1019.38 1019.10 1018.86 1018.74 1018.62 1018.50 1018.34 1018.02 1017.86 1017.78 1017.70 1017.54 1017.38 1017.18 1017.10 1016.94 1016.70 1016.34 1016.06 1015.82 1015.98 1016.14 1015.86 1015.26 1014.82 1014.90 1015.18 1014.94 1014.86 1015.10 1015.30 1015.50 1015.70 1015.78 1015.86 1015.94 1016.06 1016.22 1016.38 1016.66 1016.90 1017.10 1017.66 1017.86 1017.86 1018.02 1018.50 1019.02 1019.54 1019.82 1020.14 1020.46 1020.94 1021.30 1020.74 1020.66 1020.58 1020.66 1021.06 1021.06 1021.02
1020.54 1020.10 1019.82 1019.62 1019.42 1019.26 1019.14 1018.98 1018.86 1018.62 1018.34 1018.18 1018.06 1018.06 1018.06 1017.94 1017.78 1017.58 1017.42 1017.22 1016.94 1016.78 1016.58 1016.34 1016.06 1015.70 1015.10 1014.94 1014.82 1014.66 1014.98 1015.14 1015.50 1015.82 1016.02 1016.18 1016.22 1016.38 1016.46 1016.42 1016.38 1016.58 1016.86 1017.30 1017.98 1018.06 1018.06 1017.90 1018.22 1018.82 1019.38 1019.90 1020.18 1020.30 1020.94 1021.42 1021.26 1021.14 1021.46 1021.78 1021.94 1022.10 1022.02
1020.94 1020.58 1020.26 1020.14 1019.98 1019.82 1019.62 1019.46 1019.30 1019.10 1018.86 1018.66 1018.50 1018.50 1018.38 1018.30 1018.34 1018.34 1018.22 1018.02 1017.90 1017.50 1017.30 1017.14 1016.42 1015.98 1015.78 1015.30 1014.74 1014.78 1014.94 1015.14 1015.66 1016.06 1016.38 1016.50 1016.50 1016.70 1017.10 1017.26 1016.86 1016.66 1016.90 1017.50 1018.14 1018.06 1018.02 1017.82 1018.14 1018.78 1019.34 1019.78 1020.22 1020.58 1021.18 1021.34 1021.42 1021.74 1021.74 1021.90 1022.14 1022.18 1022.26
1021.26 1021.02 1020.74 1020.54 1020.38 1020.22 1020.06 1019.94 1019.74 1019.50 1019.34 1019.18 1019.10 1018.94 1018.82 1018.78 1018.66 1018.58 1018.66 1018.70 1018.46 1018.14 1017.94 1017.86 1017.26 1016.46 1016.10 1015.94 1015.42 1015.06 1015.10 1015.34 1015.74 1016.10 1016.38 1016.82 1017.02 1017.14 1017.42 1017.74 1017.78 1017.34 1017.14 1017.82 1018.26 1018.18 1018.10 1017.82 1018.02 1018.42 1018.70 1019.14 1019.94 1020.54 1021.06 1021.22 1021.30 1021.50 1021.74 1021.90 1022.26 1022.18 1022.38
1021.70 1021.46 1021.30 1021.10 1020.82 1020.58 1020.46 1020.34 1020.22 1019.94 1019.78 1019.62 1019.54 1019.42 1019.34 1019.26 1019.18 1019.18 1018.94 1018.78 1018.82 1018.74 1018.62 1018.62 1018.30 1017.06 1016.50 1016.26 1016.10 1015.70 1015.30 1015.38 1015.78 1016.18 1016.42 1016.70 1017.10 1017.50 1017.66 1017.90 1018.30 1018.42 1018.22 1018.50 1018.70 1018.74 1018.70 1018.42 1017.94 1018.22 1018.34 1018.78 1019.54 1020.58 1020.86 1021.02 1021.34 1021.50 1021.90 1022.14 1022.46 1022.54 1022.70
1022.30 1022.06 1021.82 1021.58 1021.26 1021.02 1020.90 1020.82 1020.66 1020.46 1020.22 1019.98 1019.78 1019.78 1019.78 1019.74 1019.70 1019.58 1019.42 1019.30 1019.10 1018.98 1019.10 1019.38 1019.06 1017.66 1016.94 1016.74 1016.58 1016.42 1016.10 1015.86 1016.06 1016.38 1016.70 1017.02 1017.14 1017.58 1018.06 1018.50 1018.86 1019.18 1018.90 1019.02 1019.02 1018.98 1018.90 1018.90 1018.66 1018.42 1018.50 1018.78 1019.38 1020.14 1020.62 1021.06 1021.62 1021.54 1021.74 1022.06 1022.18 1022.26 1022.34
1022.74 1022.62 1022.38 1022.02 1021.78 1021.54 1021.34 1021.18 1021.14 1020.98 1020.74 1020.58 1020.42 1020.30 1020.26 1020.18 1020.10 1020.06 1019.90 1019.74 1019.62 1019.54 1019.46 1019.94 1019.70 1018.30 1017.50 1017.46 1017.54 1017.46 1017.34 1017.02 1016.58 1016.70 1017.46 1017.94 1018.14 1018.50 1018.98 1019.38 1019.74 1019.82 1019.46 1019.54 1019.66 1019.66 1019.62 1019.54 1019.50 1019.50 1020.22 1020.26 1020.54 1020.62 1020.66 1021.02 1021.18 1021.34 1021.50 1021.62 1021.78 1021.98 1022.22
1023.14 1022.98 1022.78 1022.50 1022.18 1022.02 1021.86 1021.66 1021.58 1021.42 1021.18 1020.98 1020.94 1020.90 1020.78 1020.70 1020.62 1020.54 1020.38 1020.30 1020.26 1020.14 1020.14 1020.46 1020.02 1018.54 1018.14 1018.50 1018.62 1018.34 1018.38 1018.14 1017.66 1017.50 1017.78 1018.54 1018.86 1019.10 1019.38 1019.82 1020.30 1020.22 1019.94 1019.94 1020.02 1020.14 1020.26 1020.42 1020.58 1021.06 1021.22 1021.26 1021.38 1021.34 1021.30 1021.38 1021.58 1021.54 1021.74 1021.94 1022.10 1022.38 1022.70
1023.42 1023.26 1023.14 1022.82 1022.54 1022.34 1022.22 1022.06 1021.98 1021.94 1021.82 1021.62 1021.54 1021.46 1021.46 1021.30 1021.14 1021.10 1021.06 1021.02 1020.94 1020.94 1020.94 1020.94 1020.58 1019.22 1018.70 1019.06 1019.42 1019.38 1019.22 1019.18 1018.86 1018.74 1018.74 1019.10 1019.46 1019.74 1019.98 1020.34 1020.70 1020.50 1020.42 1020.50 1020.62 1020.74 1020.90 1020.98 1021.34 1021.62 1021.62 1021.74 1021.82 1021.82 1021.74 1021.94 1022.06 1022.18 1022.38 1022.54 1022.78 1022.98 1023.22
Wind_Speed
6 4 6 7 7 9 8 7 7 8 8 8 7 8 8 5 9 8 9 8 8 8 8 7 9 8 6 6 8 8 6 7 9 7 7 8 8 9 8 6 4 2 6 6 6 9 8 8 6 3 5 6 5 5 6 6 6 6 5 4 5 5 5
6 5 5 6 8 9 9 9 8 9 9 9 9 8 7 7 6 7 7 7 8 9 7 7 7 8 8 9 11 10 11 10 9 7 7 8 10 7 8 8 5 4 6 4 5 3 6 8 7 8 6 4 5 6 6 6 6 5 5 5 4 4 4
6 6 7 8 8 8 10 9 8 8 8 7 7 6 7 8 6 6 7 9 9 7 7 8 7 7 8 10 11 12 11 10 8 9 10 8 9 7 8 7 7 5 5 4 5 5 3 6 7 10 9 8 8 7 7 6 6 6 6 5 5 5 5
9 8 7 8 8 9 10 9 8 8 7 7 5 5 7 11 11 10 8 8 7 7 8 8 7 7 7 9 9 10 11 10 6 7 5 7 6 6 8 9 9 9 8 9 8 8 6 6 6 8 8 9 8 9 8 6 5 6 6 5 5 5 5
9 8 9 8 9 11 11 9 7 7 8 7 6 6 8 9 9 8 7 8 8 8 8 6 6 9 8 9 9 9 8 7 9 10 10 10 11 8 8 8 8 8 7 7 6 7 7 6 7 8 8 8 7 7 7 5 5 5 5 6 5 5 5
7 8 5 6 9 10 9 8 8 8 7 7 7 7 8 10 9 9 9 8 8 8 7 6 7 6 6 8 8 9 9 10 10 11 10 12 11 9 9 8 8 7 7 4 4 5 5 5 6 7 8 8 8 8 7 6 5 5 5 6 6 5 5
6 5 7 11 11 10 9 8 8 7 7 8 7 8 8 8 8 8 8 8 8 8 8 9 7 7 6 6 8 8 9 8 9 12 11 10 9 10 7 7 8 8 7 4 5 5 6 6 6 7 8 6 7 8 7 6 6 6 6 7 6 6 5
6 7 8 5 6 9 7 8 8 7 8 7 7 7 8 9 9 10 10 10 8 7 9 7 7 7 9 9 8 7 7 7 9 9 10 10 7 9 7 7 8 8 8 5 6 7 6 7 7 8 9 9 7 7 7 7 7 8 6 7 7 6 6
7 7 6 6 6 8 8 9 9 9 9 7 6 5 8 7 9 9 9 10 8 8 9 8 10 9 8 7 6 7 7 6 8 10 9 9 9 9 11 11 7 8 6 6 8 6 7 6 6 7 9 9 10 9 8 8 7 7 8 7 6 6 6
8 9 8 9 9 9 9 8 7 9 9 7 7 7 8 8 8 8 8 8 8 9 9 9 8 7 7 6 6 7 8 7 8 9 8 8 9 10 10 11 11 9 9 7 5 4 5 6 7 8 9 9 9 9 9 9 9 7 9 9 7 7 7
9 9 10 11 9 9 10 8 7 9 10 8 8 7 9 9 9 10 9 9 9 9 9 8 6 3 3 3 6 8 8 8 8 7 7 8 8 8 9 10 10 9 8 8 8 9 9 8 7 8 9 9 9 9 8 9 7 8 7 8 7 6 7
9 9 9 9 10 10 12 10 9 10 10 9 8 8 9 10 9 9 8 8 9 9 8 7 9 9 8 6 8 8 8 8 8 7 7 8 8 8 9 10 9 8 7 7 7 6 6 7 8 8 9 8 8 8 8 7 6 6 6 8 8 5 7
9 9 9 9 9 10 11 11 11 10 11 7 8 9 9 10 10 10 9 10 10 9 9 9 9 9 10 9 8 7 8 9 8 9 8 7 7 8 9 9 9 7 6 5 5 6 8 8 7 8 8 8 7 7 7 7 7 4 6 6 7 7 6
11 9 9 10 9 8 10 9 9 10 8 8 9 9 10 10 10 10 10 10 10 10 10 9 9 8 9 9 8 9 8 9 9 8 8 9 8 8 9 9 8 9 7 7 7 8 7 7 7 7 8 8 8 6 7 8 7 4 3 1 3 5 6
10 9 10 9 10 11 11 11 9 8 9 9 9 10 10 10 9 9 10 11 10 10 9 9 10 9 9 8 9 7 8 9 9 9 8 8 9 8 8 8 8 6 9 11 7 9 7 7 8 8 8 9 7 7 8 9 8 6 4 4 4 4 5
10 10 10 10 10 10 10 10 9 9 9 8 8 9 10 10 10 9 9 9 10 9 9 8 8 9 9 9 9 9 8 9 9 9 9 9 9 8 8 8 7 8 8 9 8 7 7 8 8 9 9 7 6 8 8 9 7 7 6 5 6 6 6
12 11 10 9 10 10 9 7 5 7 8 8 8 8 9 10 10 9 9 9 9 9 9 9 9 8 9 9 9 9 9 9 9 9 9 9 9 9 9 9 9 9 9 10 10 9 7 7 7 8 9 8 10 9 7 7 8 6 6 5 6 7 7
11 12 12 9 9 10 8 5 4 7 7 8 8 8 8 8 9 9 9 10 10 9 9 10 10 9 8 8 8 8 9 9 9 9 9 9 9 9 10 10 9 9 9 10 9 9 8 9 8 8 8 8 9 7 5 7 8 7 6 7 5 5 5
11 11 11 10 10 8 5 5 5 6 8 9 9 8 7 8 9 10 10 10 10 10 10 10 10 10 9 9 8 7 7 8 8 8 8 9 9 9 9 8 8 9 10 10 9 9 9 10 8 8 10 9 9 7 8 8 8 7 7 7 6 5 5
11 11 9 10 9 7 6 5 6 8 8 9 8 8 7 9 9 10 10 10 10 10 10 10 9 9 9 9 8 8 7 7 7 7 8 8 9 9 8 7 8 9 10 10 9 10 10 10 8 9 10 9 9 8 7 8 9 9 7 6 5 6 6
11 11 9 9 9 6 4 4 5 7 8 8 7 7 8 9 10 10 9 8 7 9 9 9 8 8 8 8 8 8 7 7 7 7 7 7 8 8 6 8 9 9 9 9 10 9 9 9 9 9 8 7 8 8 8 9 6 5 6 6 6 6 5
11 11 11 9 9 8 6 4 5 5 6 7 6 7 7 8 8 10 10 8 8 8 8 7 7 7 7 8 7 7 7 7 7 7 7 7 7 8 6 8 10 9 9 7 4 4 5 2 5 8 8 8 8 8 8 4 6 1 6 6 6 5 5
13 12 12 12 9 7 5 5 6 6 6 5 5 5 6 7 7 9 8 7 8 9 8 5 7 11 9 8 8 6 6 7 7 7 7 7 8 8 8 8 8 9 6 7 8 7 7 7 7 8 6 7 7 7 6 8 9 10 9 8 8 7 7
14 14 13 12 10 9 6 4 4 5 5 4 2 3 4 5 6 7 7 7 6 6 4 4 11 12 10 8 7 6 7 7 7 7 7 8 8 8 8 9 8 7 8 7 7 8 10 10 11 10 3 3 4 6 6 7 7 11 10 9 7 7 8
15 15 15 14 13 11 10 9 8 6 6 5 3 1 2 3 4 3 3 5 5 3 2 3 9 10 10 10 7 6 6 6 7 7 7 8 7 8 8 8 7 6 7 8 6 6 4 3 2 4 7 7 6 7 8 2 8 8 5 8 7 8 8
15 15 15 14 13 12 12 12 11 10 9 7 5 4 4 2 2 2 2 3 4 3 2 1 5 8 9 10 9 6 6 7 7 8 7 8 8 8 7 7 7 5 4 7 6 5 6 7 8 10 10 11 11 10 8 6 6 3 8 6 5 6 8
16 15 15 14 12 12 12 11 10 9 8 9 9 8 8 7 6 5 5 2 3 2 1 5 5 7 9 10 10 9 5 6 7 7 8 8 7 8 9 8 8 7 6 7 6 7 8 8 8 7 6 5 5 7 7 9 7 4 3 8 11 9 3
16 16 16 15 14 14 13 12 11 11 10 11 10 8 8 9 8 7 7 5 2 3 3 9 8 7 9 10 11 10 5 5 6 6 6 8 7 7 8 6 7 7 8 8 7 9 9 9 8 7 8 8 8 7 7 6 4 2 3 4 3 5 6
15 15 15 15 15 14 13 13 12 10 10 11 11 11 10 10 9 9 9 8 6 4 4 10 7 4 8 10 12 7 5 5 5 5 4 4 4 4 5 6 6 7 7 7 8 10 10 10 11 10 9 9 9 9 10 8 13 13 9 8 7 6 7
15 16 15 15 15 14 14 13 12 9 9 9 11 11 12 12 10 10 10 10 9 7 6 9 9 1 8 13 10 5 6 5 4 4 4 3 3 3 2 3 5 7 8 7 10 12 15 15 12 11 10 9 8 10 9 8 14 19 18 17 16 14 13
14 15 15 15 15 13 13 11 12 10 11 10 11 10 8 9 10 11 12 11 11 8 8 11 11 5 2 5 6 7 6 6 6 5 5 4 4 4 6 10 3 6 8 9 12 14 14 12 11 11 11 12 11 11 9 7 8 9 16 17 15 15 14
14 14 15 14 14 14 13 12 11 11 11 11 11 10 10 10 8 8 10 12 19 13 10 11 13 8 7 5 1 4 6 7 7 6 6 6 5 5 5 8 11 7 6 10 12 10 10 8 11 10 11 11 11 11 8 7 8 9 7 8 7 8 11
14 14 14 14 13 13 12 12 12 12 12 11 11 12 12 12 12 11 11 11 11 13 11 9 11 12 10 10 10 2 3 7 7 8 7 6 6 6 6 6 8 10 12 11 8 6 3 4 7 8 8 10 11 11 7 7 7 7 8 8 8 8 8
13 12 12 11 11 12 12 12 12 12 12 12 12 12 13 12 12 11 11 12 11 11 11 11 10 14 15 15 14 9 3 5 7 7 7 7 7 7 7 6 6 9 12 12 11 10 10 10 8 5 6 7 9 11 11 10 9 10 10 9 8 7 7
8 8 9 11 11 11 10 11 12 12 10 11 13 13 12 10 10 11 11 12 9 8 12 16 8 13 17 16 16 16 7 6 5 10 9 7 8 8 8 7 6 10 16 16 15 14 15 15 14 10 11 15 16 13 10 9 8 8 8 7 7 7 7
8 7 10 11 12 12 11 10 10 11 13 14 14 14 13 12 12 11 11 10 10 11 11 9 12 12 19 18 15 15 14 10 12 8 8 9 8 9 8 9 9 14 18 18 18 18 17 18 14 11 15 14 13 12 10 7 6 6 7 6 6 7 6
9 8 10 10 11 13 12 11 11 10 11 12 11 12 12 11 11 11 10 10 10 10 10 8 11 16 16 20 17 16 16 15 14 10 11 11 11 9 9 9 11 18 19 19 19 19 17 15 12 14 13 13 11 9 7 7 6 6 6 6 6 6 6
Wind_Direction
239 231 199 210 221 225 220 224 232 231 210 196 200 194 194 179 228 219 218 204 201 196 189 189 197 201 191 188 181 180 185 182 186 176 176 176 184 197 191 200 206 235 199 188 189 179 177 168 170 183 191 186 194 199 207 191 181 171 161 177 171 158 156
253 237 215 209 220 224 227 216 213 227 223 207 200 194 174 165 206 225 221 209 205 201 192 204 203 199 199 198 196 184 196 203 197 186 176 191 197 195 185 200 199 198 188 189 190 215 170 169 178 178 175 180 200 196 202 198 190 176 176 178 170 165 153
239 229 214 214 222 228 232 220 221 222 228 216 199 177 163 162 167 230 228 212 207 199 199 203 192 193 208 209 206 198 196 201 201 195 200 197 204 207 192 189 190 176 178 183 189 180 173 188 174 193 183 172 183 183 184 190 188 185 191 175 177 179 163
231 226 219 226 232 238 240 232 221 216 217 219 196 182 180 183 174 197 210 212 209 207 203 201 183 200 217 207 203 197 199 194 195 203 198 217 200 212 203 200 201 191 188 191 187 186 183 175 176 179 181 187 188 166 183 175 182 188 190 180 183 177 173
221 221 224 234 232 236 238 234 224 215 214 218 200 182 187 197 182 192 195 207 210 212 216 208 195 188 205 213 204 199 198 179 204 203 204 212 206 211 209 210 210 206 206 199 183 190 190 189 181 175 181 179 181 172 158 162 178 188 192 189 187 178 181
233 227 226 239 247 237 239 239 231 223 216 206 195 190 202 197 191 192 198 200 201 204 210 206 206 193 185 217 208 207 201 189 206 211 207 210 206 209 211 215 220 215 216 215 179 203 200 190 193 172 175 173 173 160 159 170 174 189 194 193 191 188 182
260 234 213 229 233 233 236 245 247 239 227 221 205 206 208 205 197 189 193 202 200 199 192 196 198 215 201 210 214 210 206 203 203 207 213 213 207 210 205 208 213 213 219 198 180 208 191 193 198 182 157 178 178 166 159 183 177 182 191 200 192 189 187
280 244 237 249 247 250 254 257 263 259 249 232 223 213 217 201 198 193 197 201 202 197 194 185 195 214 217 210 210 211 209 207 215 212 215 211 207 220 204 216 212 214 215 191 192 218 207 203 196 174 165 162 171 179 170 182 183 211 179 185 191 189 187
279 268 254 244 243 246 251 251 254 255 249 237 226 209 210 199 199 199 198 207 207 196 197 191 203 204 208 212 213 213 214 211 215 214 217 213 207 201 202 215 220 226 222 195 213 209 217 206 200 179 181 172 168 176 181 183 199 207 198 184 179 195 180
270 258 249 237 234 242 245 248 242 247 246 237 226 213 212 195 197 202 206 207 202 194 202 208 207 201 202 208 214 216 216 207 212 215 216 215 216 207 208 211 216 219 223 206 188 212 222 220 203 196 198 191 182 175 180 192 198 201 184 203 187 179 188
273 264 256 245 233 237 241 243 246 245 245 238 226 208 203 194 196 197 198 200 203 199 199 204 190 177 179 187 225 224 218 210 213 218 217 218 216 213 208 210 212 220 222 209 200 207 202 212 205 204 207 208 202 197 182 191 191 200 180 187 207 164 174
292 277 261 245 235 233 235 237 234 242 248 237 228 211 203 208 198 191 191 192 198 200 191 188 178 179 193 201 212 218 213 208 209 211 215 216 216 215 209 210 214 222 219 210 206 204 206 202 207 207 211 215 208 219 199 202 203 179 199 180 196 195 165
292 283 260 245 241 233 236 238 238 241 242 236 231 221 213 209 203 195 192 199 205 199 185 191 191 197 199 204 209 215 213 207 210 213 212 209 211 210 213 214 214 212 220 215 192 198 204 210 208 212 210 212 210 212 215 214 226 167 188 196 180 179 162
297 274 262 252 242 246 248 241 242 241 236 228 224 221 215 207 203 200 197 202 202 194 189 188 190 194 196 203 211 213 212 208 208 209 209 207 208 209 211 215 211 205 202 206 198 216 207 200 199 209 213 209 213 203 209 217 219 182 131 133 154 166 162
306 290 269 259 255 246 244 244 243 239 232 229 221 222 216 207 201 195 199 203 201 194 188 188 184 182 191 197 208 212 216 208 208 211 206 207 206 208 213 215 217 159 200 207 197 208 200 193 198 205 206 211 211 201 203 218 213 212 156 165 176 157 161
322 296 272 267 263 258 252 247 236 234 228 227 222 223 218 211 202 193 200 206 204 195 184 182 190 181 183 193 205 210 214 212 209 211 209 209 207 203 203 207 203 181 206 199 202 210 197 196 198 205 206 186 200 222 206 215 207 206 187 170 178 175 181
335 323 290 266 260 257 254 248 243 237 235 236 229 222 223 217 207 196 201 208 202 193 184 180 185 191 190 196 203 210 212 213 212 212 213 212 209 207 204 201 205 198 201 205 206 205 200 195 197 205 204 193 192 210 199 202 214 214 196 170 184 192 180
339 335 321 287 261 259 260 250 227 244 242 242 235 229 223 223 214 204 202 201 194 186 179 179 179 184 190 193 200 206 211 213 215 216 216 216 214 210 207 207 205 200 200 205 206 207 202 198 202 204 207 204 204 188 188 208 212 208 187 201 161 184 165
340 334 327 310 277 262 260 256 242 238 246 244 241 237 229 223 219 210 206 201 191 182 180 182 182 180 182 184 192 204 213 217 219 220 217 216 214 214 216 210 209 201 204 209 208 207 205 202 202 206 208 210 206 187 193 202 209 204 207 214 174 164 188
339 336 325 314 291 258 251 251 262 266 255 245 242 235 228 227 223 220 213 201 193 187 182 180 179 177 177 178 186 196 209 217 223 224 223 219 218 218 220 221 218 211 210 212 211 206 201 199 204 208 208 205 211 198 175 208 206 203 206 204 187 185 178
339 342 328 330 319 279 245 234 237 255 261 259 254 245 237 227 228 227 219 199 184 188 185 180 176 175 174 175 179 192 200 210 215 219 224 222 221 223 205 211 222 218 216 211 210 200 193 207 210 211 205 206 207 203 193 199 184 190 201 210 205 187 190
344 346 345 340 340 334 306 294 270 265 267 267 264 257 249 240 232 225 219 207 196 195 193 178 175 176 175 175 179 186 197 203 207 212 216 219 217 212 193 211 217 221 219 225 198 177 194 235 224 213 211 204 203 203 207 155 91 13 258 223 209 192 178
352 352 352 352 337 334 325 291 274 268 271 275 278 269 258 247 234 224 208 196 197 201 196 179 159 173 176 171 176 185 193 202 202 204 208 210 212 208 197 198 214 222 208 188 189 192 194 200 234 258 230 206 206 208 194 134 164 202 213 212 216 194 194
358 1 357 351 345 339 330 325 294 288 295 296 278 267 262 247 230 222 204 189 188 205 200 165 154 167 171 170 173 185 195 202 203 204 205 205 206 208 205 205 210 180 189 183 184 180 184 190 198 218 227 218 222 189 155 140 195 216 210 214 205 196 209
3 3 3 2 2 1 1 10 7 354 350 356 9 351 281 262 249 235 206 182 181 184 169 108 157 165 173 176 188 187 200 204 204 206 204 201 203 202 202 199 201 193 204 200 179 153 113 94 145 62 61 58 38 23 11 203 217 206 219 231 208 203 210
6 6 6 4 4 5 10 19 16 8 12 9 20 34 26 358 339 311 238 173 153 152 151 104 180 171 178 178 184 202 192 201 204 205 201 200 198 195 192 186 183 183 148 116 146 152 141 118 95 95 95 91 68 55 42 36 28 329 221 228 243 210 219
10 8 7 6 6 11 17 19 14 11 9 13 19 18 14 18 11 1 351 21 99 85 115 357 279 195 180 176 175 194 202 189 199 200 203 203 200 198 193 188 182 172 156 162 157 155 146 138 136 129 119 104 87 72 64 41 55 51 247 191 231 241 139
12 12 11 12 13 17 20 21 24 26 25 24 25 21 17 12 8 3 3 354 39 61 15 341 290 207 182 176 171 193 197 186 194 198 197 195 189 175 174 173 169 161 158 166 164 157 147 139 126 111 101 87 75 66 50 39 21 64 92 15 358 72 78
14 15 15 15 18 19 20 22 23 25 36 36 34 31 28 24 14 10 4 3 357 17 18 355 326 225 171 167 164 183 175 168 168 158 158 153 159 160 163 165 162 154 157 156 136 147 135 124 110 104 98 96 93 79 67 57 72 59 59 79 70 64 69
18 17 19 20 21 21 20 21 24 23 33 38 44 38 36 32 24 17 14 10 4 354 353 356 347 315 161 155 161 155 146 148 132 129 117 117 116 104 110 155 160 154 148 140 141 141 136 131 126 123 118 111 104 96 93 78 75 84 82 78 81 78 76
24 23 24 24 25 26 26 27 29 31 41 39 39 39 40 44 36 26 20 17 5 357 350 351 357 8 305 200 164 140 145 139 127 123 115 94 99 90 60 32 28 152 144 140 152 149 150 133 126 124 123 117 109 104 104 103 94 80 87 86 79 74 65
30 31 30 29 28 27 28 30 32 38 42 46 45 41 38 38 38 37 31 24 18 13 359 344 350 8 32 344 247 133 136 132 132 132 126 107 87 88 77 53 29 27 108 136 151 156 170 153 132 143 137 121 115 114 117 120 110 107 94 82 66 64 61
34 34 33 31 31 32 30 32 32 39 45 49 50 48 46 44 42 34 33 39 30 19 4 345 345 20 31 28 355 344 127 132 131 129 122 115 109 88 77 73 52 48 86 104 92 68 11 316 138 137 136 126 127 126 138 119 103 102 94 94 93 86 86
33 32 30 33 37 40 35 33 34 39 44 49 52 49 44 42 42 38 33 31 35 35 22 356 346 31 40 35 26 11 27 81 103 105 106 100 99 95 79 64 68 61 76 75 73 70 65 41 31 104 111 123 117 122 123 112 102 101 104 104 102 98 94
20 18 17 27 32 38 38 40 39 41 41 41 46 46 39 34 36 35 31 29 24 24 29 19 333 27 46 49 41 29 23 29 67 111 91 83 78 78 77 74 69 76 79 76 71 67 62 59 54 66 72 91 103 116 117 111 118 115 109 106 99 88 81
16 19 25 26 32 35 38 40 35 37 40 43 44 43 40 39 37 31 28 26 22 19 16 6 17 44 44 43 47 54 43 36 48 58 90 88 86 91 86 88 88 88 87 86 84 80 78 77 71 73 75 74 78 82 88 95 92 100 100 95 89 86 79
19 17 26 30 36 38 37 40 43 40 39 41 40 40 35 34 38 35 27 22 20 18 13 6 12 46 60 54 48 47 56 54 56 67 71 84 90 88 86 83 93 88 84 82 78 74 72 72 79 79 78 78 73 73 84 91 89 88 85 84 80 78 74